| time (UTC) | temp F | wind direction | speed knots | gust knots | rain 1hr in | rain 24hr in | rain mn in | humidity % | barometer mb |
| 20260905002016 | 78 | 0.0 | 0.0 | 0.00 | 0.00 | 0.00 | 83 | 1017.9 | |
| 20260905001112 | 78 | 0.0 | 0.0 | 0.00 | 0.00 | 0.00 | 84 | 1017.9 | |
| 20260905000047 | 78 | 345 | 0.0 | 0.9 | 0.00 | 0.00 | 0.00 | 84 | 1018.0 |
| 20260904235042 | 78 | 0.0 | 0.0 | 0.00 | 0.00 | 0.00 | 84 | 1018.1 | |
| 20260904234017 | 78 | 0.0 | 0.0 | 0.00 | 0.00 | 0.00 | 84 | 1018.2 | |
| 20260904233052 | 78 | 0.0 | 0.0 | 0.00 | 0.00 | 0.00 | 84 | 1018.0 | |
| 20260904232047 | 78 | 0.0 | 0.0 | 0.00 | 0.00 | 0.00 | 84 | 1018.1 | |
| 20260904231022 | 78 | 0.0 | 0.0 | 0.00 | 0.00 | 0.00 | 84 | 1018.0 | |
| 20260904230038 | 78 | 0.0 | 0.0 | 0.00 | 0.00 | 0.00 | 84 | 1018.1 | |
| 20260904225033 | 78 | 0.0 | 0.0 | 0.00 | 0.00 | 0.00 | 84 | 1018.0 | |
| 20260904224048 | 78 | 0.0 | 0.0 | 0.00 | 0.00 | 0.00 | 84 | 1018.0 | |
| 20260904223024 | 78 | 0.0 | 0.0 | 0.00 | 0.00 | 0.00 | 84 | 1017.9 | |
| 20260904222020 | 78 | 0.0 | 0.0 | 0.00 | 0.00 | 0.00 | 84 | 1017.9 | |
| 20260904221034 | 78 | 0.0 | 0.0 | 0.00 | 0.00 | 0.00 | 84 | 1017.9 | |
| 20260904220030 | 79 | 27 | 0.9 | 0.9 | 0.00 | 0.00 | 0.00 | 83 | 1017.9 |
| 20260904215025 | 79 | 0.0 | 0.0 | 0.00 | 0.00 | 0.00 | 83 | 1017.9 | |
| 20260904214041 | 79 | 0.0 | 0.0 | 0.00 | 0.00 | 0.00 | 83 | 1017.9 | |
| 20260904213017 | 79 | 75 | 0.0 | 0.9 | 0.00 | 0.00 | 0.00 | 82 | 1017.9 |
| 20260904212112 | 79 | 0.0 | 0.0 | 0.00 | 0.00 | 0.00 | 82 | 1018.0 | |
| 20260904211027 | 79 | 0.0 | 0.0 | 0.00 | 0.00 | 0.00 | 82 | 1018.1 | |
| 20260904210023 | 79 | 71 | 0.0 | 0.9 | 0.00 | 0.00 | 0.00 | 82 | 1018.2 |
| 20260904205018 | 79 | 55 | 0.0 | 2.6 | 0.00 | 0.00 | 0.00 | 82 | 1018.1 |
| 20260904204033 | 79 | 40 | 0.0 | 1.7 | 0.00 | 0.00 | 0.00 | 82 | 1018.1 |
| 20260904203029 | 79 | 61 | 0.0 | 0.9 | 0.00 | 0.00 | 0.00 | 82 | 1017.9 |
| 20260904202024 | 79 | 64 | 0.0 | 1.7 | 0.00 | 0.00 | 0.00 | 82 | 1018.0 |
| 20260904201020 | 79 | 66 | 0.9 | 2.6 | 0.00 | 0.00 | 0.00 | 82 | 1017.8 |
| 20260904200035 | 80 | 71 | 0.9 | 3.5 | 0.00 | 0.00 | 0.00 | 81 | 1017.7 |
| 20260904195110 | 80 | 58 | 0.9 | 1.7 | 0.00 | 0.00 | 0.00 | 80 | 1017.6 |
| 20260904194025 | 80 | 60 | 0.0 | 1.7 | 0.00 | 0.00 | 0.00 | 80 | 1017.4 |
| 20260904193020 | 80 | 76 | 0.0 | 1.7 | 0.00 | 0.00 | 0.00 | 79 | 1017.4 |
| 20260904192016 | 80 | 49 | 0.0 | 0.9 | 0.00 | 0.00 | 0.00 | 79 | 1017.3 |
| 20260904191032 | 80 | 78 | 0.9 | 1.7 | 0.00 | 0.00 | 0.00 | 79 | 1017.2 |
| 20260904190048 | 80 | 76 | 0.0 | 1.7 | 0.00 | 0.00 | 0.00 | 79 | 1017.1 |
| 20260904185023 | 81 | 62 | 0.9 | 2.6 | 0.00 | 0.00 | 0.00 | 79 | 1017.0 |
| 20260904184018 | 80 | 62 | 0.9 | 1.7 | 0.00 | 0.00 | 0.00 | 78 | 1016.9 |
| 20260904183034 | 80 | 74 | 0.9 | 2.6 | 0.00 | 0.00 | 0.00 | 78 | 1016.8 |
| 20260904182029 | 81 | 75 | 0.9 | 2.6 | 0.00 | 0.00 | 0.00 | 78 | 1016.8 |
| 20260904181024 | 81 | 69 | 0.9 | 2.6 | 0.00 | 0.00 | 0.00 | 77 | 1017.0 |
| 20260904180019 | 82 | 67 | 0.9 | 5.2 | 0.00 | 0.00 | 0.00 | 76 | 1016.8 |
| 20260904175035 | 82 | 69 | 1.7 | 3.5 | 0.00 | 0.00 | 0.00 | 76 | 1016.7 |
| 20260904174030 | 82 | 76 | 1.7 | 7.0 | 0.00 | 0.00 | 0.00 | 75 | 1016.8 |
| 20260904173026 | 83 | 86 | 0.9 | 5.2 | 0.00 | 0.00 | 0.00 | 75 | 1016.7 |
| 20260904172020 | 83 | 73 | 1.7 | 6.1 | 0.00 | 0.00 | 0.00 | 74 | 1016.7 |
| 20260904171016 | 83 | 58 | 0.9 | 3.5 | 0.00 | 0.00 | 0.00 | 74 | 1016.7 |
| 20260904170031 | 83 | 62 | 2.6 | 6.1 | 0.00 | 0.00 | 0.00 | 73 | 1016.7 |
| 20260904165027 | 83 | 54 | 2.6 | 5.2 | 0.00 | 0.00 | 0.00 | 73 | 1016.6 |
| 20260904164021 | 84 | 63 | 2.6 | 6.1 | 0.00 | 0.00 | 0.00 | 74 | 1016.7 |
| 20260904163017 | 84 | 99 | 5.2 | 8.7 | 0.00 | 0.00 | 0.00 | 74 | 1016.7 |
| 20260904162033 | 84 | 92 | 3.5 | 8.7 | 0.00 | 0.00 | 0.00 | 72 | 1016.8 |
| 20260904161028 | 84 | 76 | 3.5 | 9.6 | 0.00 | 0.00 | 0.00 | 73 | 1017.0 |
| 20260904160023 | 84 | 96 | 4.3 | 8.7 | 0.00 | 0.00 | 0.00 | 75 | 1017.0 |
| 20260904155018 | 84 | 86 | 3.5 | 7.0 | 0.00 | 0.00 | 0.00 | 73 | 1016.9 |
| 20260904154054 | 85 | 98 | 1.7 | 6.1 | 0.00 | 0.00 | 0.00 | 72 | 1016.7 |
| 20260904153028 | 84 | 93 | 5.2 | 11.3 | 0.00 | 0.00 | 0.00 | 73 | 1016.7 |
| 20260904152024 | 85 | 109 | 2.6 | 7.0 | 0.00 | 0.00 | 0.00 | 71 | 1016.7 |
| 20260904151019 | 84 | 93 | 4.3 | 9.6 | 0.00 | 0.00 | 0.00 | 72 | 1016.7 |
| 20260904150035 | 84 | 94 | 5.2 | 11.3 | 0.00 | 0.00 | 0.00 | 72 | 1016.8 |
| 20260904145029 | 84 | 86 | 4.3 | 13.0 | 0.00 | 0.00 | 0.00 | 73 | 1016.8 |
| 20260904144025 | 84 | 95 | 7.0 | 13.9 | 0.00 | 0.00 | 0.00 | 73 | 1016.7 |
| 20260904143040 | 84 | 110 | 7.0 | 13.0 | 0.00 | 0.00 | 0.00 | 74 | 1016.8 |
| 20260904142015 | 84 | 91 | 7.8 | 13.9 | 0.00 | 0.00 | 0.00 | 76 | 1016.7 |
| 20260904141032 | 84 | 98 | 7.8 | 14.8 | 0.00 | 0.00 | 0.00 | 73 | 1016.8 |
| 20260904140026 | 85 | 93 | 7.0 | 16.5 | 0.00 | 0.00 | 0.00 | 70 | 1017.0 |
| 20260904135041 | 86 | 117 | 6.1 | 11.3 | 0.00 | 0.00 | 0.00 | 66 | 1017.0 |
| 20260904134017 | 85 | 109 | 6.1 | 13.0 | 0.00 | 0.00 | 0.00 | 67 | 1017.0 |
| 20260904133033 | 86 | 108 | 5.2 | 12.2 | 0.00 | 0.00 | 0.00 | 67 | 1017.1 |
| 20260904132028 | 86 | 112 | 6.1 | 13.0 | 0.00 | 0.00 | 0.00 | 65 | 1017.3 |
| 20260904131103 | 86 | 99 | 4.3 | 12.2 | 0.00 | 0.00 | 0.00 | 64 | 1017.4 |
| 20260904130018 | 87 | 104 | 5.2 | 9.6 | 0.00 | 0.00 | 0.00 | 64 | 1017.5 |
| 20260904125034 | 86 | 118 | 6.1 | 13.0 | 0.00 | 0.00 | 0.00 | 64 | 1017.5 |
| 20260904124029 | 87 | 96 | 5.2 | 12.2 | 0.00 | 0.00 | 0.00 | 66 | 1017.4 |
| 20260904123024 | 87 | 122 | 5.2 | 9.6 | 0.00 | 0.00 | 0.00 | 64 | 1017.5 |
| 20260904122020 | 87 | 123 | 6.1 | 9.6 | 0.00 | 0.00 | 0.00 | 63 | 1017.5 |
| 20260904121035 | 87 | 135 | 6.1 | 9.6 | 0.00 | 0.00 | 0.00 | 66 | 1017.7 |
| 20260904120031 | 87 | 106 | 6.1 | 12.2 | 0.00 | 0.00 | 0.00 | 65 | 1017.7 |
| 20260904115025 | 87 | 142 | 5.2 | 8.7 | 0.00 | 0.00 | 0.00 | 65 | 1017.9 |
| 20260904114041 | 86 | 135 | 5.2 | 8.7 | 0.00 | 0.00 | 0.00 | 67 | 1017.9 |
| 20260904113016 | 87 | 141 | 5.2 | 9.6 | 0.00 | 0.00 | 0.00 | 67 | 1017.9 |
| 20260904112051 | 87 | 147 | 3.5 | 11.3 | 0.00 | 0.00 | 0.00 | 67 | 1018.0 |
| 20260904111027 | 87 | 171 | 5.2 | 8.7 | 0.00 | 0.00 | 0.00 | 65 | 1017.9 |
| 20260904110022 | 87 | 144 | 6.1 | 11.3 | 0.00 | 0.00 | 0.00 | 64 | 1018.1 |
| 20260904105017 | 88 | 146 | 5.2 | 9.6 | 0.00 | 0.00 | 0.00 | 61 | 1018.1 |
| 20260904104032 | 89 | 169 | 4.3 | 8.7 | 0.00 | 0.00 | 0.00 | 56 | 1018.0 |
| 20260904103028 | 91 | 151 | 2.6 | 7.8 | 0.00 | 0.00 | 0.00 | 51 | 1018.3 |
| 20260904102023 | 90 | 148 | 2.6 | 7.0 | 0.00 | 0.00 | 0.00 | 50 | 1018.4 |
| 20260904101018 | 89 | 186 | 1.7 | 6.1 | 0.00 | 0.00 | 0.00 | 50 | 1018.4 |
| 20260904100034 | 88 | 143 | 2.6 | 5.2 | 0.00 | 0.00 | 0.00 | 51 | 1018.5 |
| 20260904095029 | 88 | 156 | 3.5 | 7.8 | 0.00 | 0.00 | 0.00 | 52 | 1018.5 |
| 20260904094024 | 87 | 168 | 3.5 | 6.1 | 0.00 | 0.00 | 0.00 | 54 | 1018.6 |
| 20260904093019 | 87 | 146 | 2.6 | 6.1 | 0.00 | 0.00 | 0.00 | 53 | 1018.7 |
| 20260904092035 | 86 | 162 | 3.5 | 6.1 | 0.00 | 0.00 | 0.00 | 54 | 1018.6 |
| 20260904091050 | 87 | 160 | 1.7 | 3.5 | 0.00 | 0.00 | 0.00 | 53 | 1018.6 |
| 20260904090025 | 88 | 7 | 0.9 | 2.6 | 0.00 | 0.00 | 0.00 | 52 | 1018.6 |
| 20260904085020 | 86 | 345 | 0.9 | 2.6 | 0.00 | 0.00 | 0.00 | 52 | 1018.4 |
| 20260904084035 | 85 | 196 | 0.0 | 2.6 | 0.00 | 0.00 | 0.00 | 55 | 1018.4 |
| 20260904083030 | 84 | 233 | 0.9 | 2.6 | 0.00 | 0.00 | 0.00 | 57 | 1018.5 |
| 20260904082025 | 83 | 220 | 0.9 | 2.6 | 0.00 | 0.00 | 0.00 | 60 | 1018.4 |
| 20260904081021 | 83 | 296 | 0.9 | 2.6 | 0.00 | 0.00 | 0.00 | 61 | 1018.3 |
| 20260904080036 | 82 | 292 | 0.0 | 2.6 | 0.00 | 0.00 | 0.00 | 62 | 1018.3 |
| 20260904075032 | 81 | 263 | 0.9 | 1.7 | 0.00 | 0.00 | 0.00 | 64 | 1018.4 |
| 20260904074047 | 81 | 275 | 0.0 | 1.7 | 0.00 | 0.00 | 0.00 | 65 | 1018.4 |
| 20260904073022 | 80 | 315 | 0.0 | 1.7 | 0.00 | 0.00 | 0.00 | 67 | 1018.5 |
| 20260904072058 | 79 | 268 | 0.9 | 1.7 | 0.00 | 0.00 | 0.00 | 69 | 1018.6 |
| 20260904071033 | 78 | 342 | 0.0 | 0.9 | 0.00 | 0.00 | 0.00 | 71 | 1018.6 |
| 20260904070048 | 78 | 4 | 0.0 | 0.9 | 0.00 | 0.00 | 0.00 | 74 | 1018.5 |
| 20260904065023 | 77 | 299 | 0.9 | 1.7 | 0.00 | 0.00 | 0.00 | 75 | 1018.7 |
| 20260904064019 | 77 | 291 | 0.0 | 1.7 | 0.00 | 0.00 | 0.00 | 77 | 1018.6 |
| 20260904063054 | 76 | 301 | 0.0 | 0.9 | 0.00 | 0.00 | 0.00 | 80 | 1018.7 |
| 20260904062030 | 76 | 277 | 0.9 | 1.7 | 0.00 | 0.00 | 0.00 | 82 | 1018.7 |
| 20260904061025 | 75 | 292 | 0.0 | 0.9 | 0.00 | 0.00 | 0.00 | 84 | 1018.6 |
| 20260904060021 | 75 | 286 | 0.0 | 0.9 | 0.00 | 0.00 | 0.00 | 84 | 1018.6 |
| 20260904055016 | 75 | 0.0 | 0.0 | 0.00 | 0.00 | 0.00 | 85 | 1018.5 | |
| 20260904054051 | 75 | 0.0 | 0.0 | 0.00 | 0.00 | 0.00 | 85 | 1018.5 | |
| 20260904053027 | 75 | 0.0 | 0.0 | 0.00 | 0.00 | 0.00 | 85 | 1018.5 | |
| 20260904052022 | 75 | 0.0 | 0.0 | 0.00 | 0.00 | 0.00 | 85 | 1018.6 | |
| 20260904051017 | 75 | 0.0 | 0.0 | 0.00 | 0.00 | 0.00 | 85 | 1018.6 | |
| 20260904050033 | 74 | 0.0 | 0.0 | 0.00 | 0.00 | 0.00 | 85 | 1018.5 | |
| 20260904045028 | 74 | 0.0 | 0.0 | 0.00 | 0.00 | 0.00 | 86 | 1018.5 | |
| 20260904044023 | 74 | 0.0 | 0.0 | 0.00 | 0.00 | 0.00 | 86 | 1018.6 | |
| 20260904043019 | 74 | 0.0 | 0.0 | 0.00 | 0.00 | 0.00 | 86 | 1018.6 | |
| 20260904042034 | 74 | 0.0 | 0.0 | 0.00 | 0.00 | 0.00 | 86 | 1018.6 | |
| 20260904041029 | 74 | 301 | 0.0 | 0.9 | 0.00 | 0.00 | 0.00 | 86 | 1018.6 |
| 20260904040045 | 74 | 301 | 0.9 | 0.9 | 0.00 | 0.00 | 0.00 | 86 | 1018.7 |
| 20260904035039 | 75 | 0.0 | 0.0 | 0.00 | 0.00 | 0.00 | 86 | 1018.6 | |
| 20260904034034 | 75 | 0.0 | 0.0 | 0.00 | 0.00 | 0.00 | 85 | 1018.7 | |
| 20260904033030 | 75 | 0.0 | 0.0 | 0.00 | 0.00 | 0.00 | 85 | 1018.7 | |
| 20260904032026 | 75 | 0.0 | 0.0 | 0.00 | 0.00 | 0.00 | 84 | 1018.7 | |
| 20260904031021 | 76 | 0.0 | 0.0 | 0.00 | 0.00 | 0.00 | 85 | 1018.9 | |
| 20260904030056 | 76 | 287 | 0.0 | 0.9 | 0.00 | 0.00 | 0.00 | 85 | 1018.8 |
| 20260904025051 | 76 | 293 | 0.0 | 0.9 | 0.00 | 0.00 | 0.00 | 85 | 1018.8 |
| 20260904024027 | 76 | 290 | 0.0 | 0.9 | 0.00 | 0.00 | 0.00 | 85 | 1018.6 |
| 20260904023022 | 76 | 0.0 | 0.0 | 0.00 | 0.00 | 0.00 | 85 | 1018.8 | |
| 20260904022017 | 76 | 0.0 | 0.0 | 0.00 | 0.00 | 0.00 | 85 | 1018.9 | |
| 20260904021033 | 76 | 278 | 0.0 | 0.9 | 0.00 | 0.00 | 0.00 | 85 | 1019.0 |
| 20260904020028 | 76 | 275 | 0.0 | 0.9 | 0.00 | 0.00 | 0.00 | 84 | 1019.0 |
| 20260904015023 | 76 | 262 | 0.9 | 1.7 | 0.00 | 0.00 | 0.00 | 84 | 1019.1 |
| 20260904014039 | 76 | 274 | 0.9 | 1.7 | 0.00 | 0.00 | 0.00 | 83 | 1019.1 |
| 20260904013055 | 76 | 289 | 0.9 | 1.7 | 0.00 | 0.00 | 0.00 | 83 | 1019.2 |
| 20260904012030 | 76 | 265 | 0.9 | 1.7 | 0.00 | 0.00 | 0.00 | 84 | 1019.3 |
| 20260904011025 | 76 | 268 | 0.9 | 1.7 | 0.00 | 0.00 | 0.00 | 85 | 1019.4 |
| 20260904010021 | 77 | 269 | 0.0 | 1.7 | 0.00 | 0.00 | 0.00 | 86 | 1019.5 |
| 20260904005016 | 77 | 235 | 0.0 | 0.9 | 0.00 | 0.00 | 0.00 | 86 | 1019.5 |
| 20260904004031 | 77 | 273 | 0.9 | 1.7 | 0.00 | 0.00 | 0.00 | 86 | 1019.5 |
| 20260904003027 | 77 | 253 | 1.7 | 3.5 | 0.00 | 0.00 | 0.00 | 86 | 1019.4 |